Location: B?jaj?g
(11.7167°N, 92.6667°E)
Time: 22:31:36
(UTC+00:00)

Timation 1 Rocket - Pass Details

Date: 18 September 2020
Orbit: 897 x 910 km, 70.0° (Epoch: 30 October)

Event Time Altitude Azimuth Distance (km) Brightness Sun altitude
Rises 22:22:24 0° 343° (NNW) 3,525 7.3 -19.4°
Reaches altitude 10° 22:24:54 10° 344° (NNW) 2,586 6.6 -18.8°
Maximum altitude 22:30:54 87° 74° (ENE) 913 4.3 -17.4°
Drops below altitude 10° 22:36:54 10° 162° (SSE) 2,588 6.9 -15.9°
Sets 22:39:23 0° 163° (SSE) 3,529 7.6 -15.3°
